Wind_Speed
25 25 25 26 27 29 31 33 34 36 37 37 38 37 37 36 36 36 36 36 37 38 40 41 42 43 44 45 47 48 48 49 49 50 51 51 52 52 52 52 52 52 52
28 28 28 28 30 31 33 34 35 36 37 37 37 37 36 36 36 37 38 38 39 39 40 42 43 45 46 47 48 49 51 52 53 53 54 54 55 55 55 55 55 55 54
31 31 31 32 33 34 35 36 37 37 37 36 36 36 36 36 37 38 39 40 40 41 42 43 45 47 50 51 53 54 55 56 57 58 58 59 59 59 59 58 58 58 57
32 33 34 35 36 37 37 37 37 37 37 36 36 36 36 37 38 40 41 42 43 45 46 48 50 52 54 56 58 59 60 61 62 63 63 64 64 64 63 63 62 61 61
33 35 36 37 37 38 38 37 37 37 37 37 37 37 38 39 41 43 44 46 48 50 53 55 57 59 60 62 64 65 67 67 68 68 69 69 69 69 69 68 67 66 65
35 36 38 38 38 38 38 38 38 39 39 40 40 40 42 43 45 47 49 52 54 57 59 61 64 65 67 68 69 71 72 73 74 75 75 75 75 74 74 74 73 72 70
37 39 40 40 40 40 40 40 40 41 43 44 45 46 47 49 51 54 56 59 61 63 66 68 70 71 72 74 75 76 77 78 78 79 80 80 80 80 79 78 78 77 76
40 41 41 41 41 42 43 44 45 46 47 50 52 53 53 54 56 59 62 65 67 69 71 72 74 75 77 78 79 80 81 82 82 82 83 84 85 85 85 84 83 82 82
41 42 42 42 43 44 46 47 49 50 52 54 57 61 63 64 64 65 67 69 71 73 75 76 78 78 79 80 82 83 84 85 86 86 87 88 89 90 90 90 90 89 88
42 42 42 43 45 46 48 50 52 54 57 59 62 66 70 73 75 74 73 74 76 78 79 80 81 82 83 84 85 86 88 89 90 91 93 93 94 95 96 96 97 97 96
42 42 43 44 46 48 50 52 55 59 62 66 69 71 73 76 78 80 80 81 82 83 83 84 85 87 88 90 91 93 94 95 96 97 98 99 99 100 100 101 102 102 102
42 43 44 46 48 50 53 56 60 63 67 70 73 76 78 80 82 84 85 85 86 86 88 89 91 93 95 97 99 101 102 102 102 102 101 101 101 101 101 101 101 102 103
43 44 46 48 51 54 58 61 65 68 71 73 76 78 80 82 85 87 89 90 91 90 92 93 96 99 101 104 105 106 105 104 103 102 100 98 96 95 95 95 95 95 97
45 46 49 52 56 59 63 66 69 72 74 76 78 80 82 84 87 90 93 96 97 96 97 98 100 102 104 105 104 103 101 98 96 95 93 91 89 87 86 85 86 87 89
47 50 53 57 61 64 67 70 73 75 77 79 80 82 84 87 90 93 97 100 104 106 104 103 103 102 101 100 97 95 92 89 87 86 84 83 82 80 78 78 79 80 82
50 54 58 62 65 69 71 73 75 77 78 80 82 85 88 91 95 98 101 104 106 109 110 104 101 97 93 91 89 88 86 83 81 79 77 75 74 73 72 71 72 74 77
55 59 62 66 69 72 73 75 76 77 79 82 85 89 93 97 100 102 104 104 104 103 104 99 92 88 84 81 79 79 79 77 74 71 70 69 69 68 67 67 67 69 71
59 63 67 70 72 73 74 75 76 79 83 87 91 95 98 101 103 103 102 101 99 96 96 94 86 81 77 75 73 70 69 68 66 65 64 63 62 62 62 62 63 64 66
64 67 70 71 71 72 74 76 80 84 88 92 97 100 101 102 101 99 97 95 92 90 89 88 83 78 73 68 65 62 59 57 57 56 56 55 56 56 57 57 57 59 60
67 69 69 70 71 73 77 81 85 89 93 97 100 101 101 99 96 94 91 89 87 86 84 83 79 73 66 60 58 55 50 47 47 47 47 48 49 49 50 51 51 52 53
68 68 68 70 73 77 82 86 90 95 98 100 100 99 96 92 89 86 85 84 84 83 82 78 72 65 58 54 50 48 44 39 37 40 41 40 42 42 43 44 45 45 46
66 66 68 72 77 82 87 92 96 99 101 101 98 94 88 84 82 80 81 81 81 80 76 69 63 57 52 48 45 41 38 33 28 30 36 33 36 37 38 39 38 39 39
65 68 72 77 82 87 92 96 99 101 100 97 92 86 81 79 78 79 79 77 73 68 63 60 55 50 47 43 40 35 32 30 28 28 31 29 31 32 33 33 32 31 31
67 72 77 82 87 92 96 99 101 99 95 89 83 79 78 76 77 78 75 70 63 57 53 51 48 45 42 39 36 34 30 26 25 27 31 28 26 27 27 26 26 24 24
71 76 81 86 91 95 99 100 99 95 87 81 77 76 76 76 75 72 68 61 54 49 45 42 40 39 38 37 37 34 31 28 23 24 28 27 25 24 23 22 20 16 15
75 80 85 90 95 98 99 98 94 89 83 78 74 73 73 72 68 63 58 53 47 40 35 31 31 33 34 34 35 34 32 28 22 21 24 25 24 21 18 17 14 11 8
Wind_Direction
293 292 292 291 291 290 291 292 293 294 293 293 293 293 293 293 293 293 292 292 291 291 291 291 291 290 289 289 288 288 287 286 285 283 282 281 280 278 277 276 275 274 273
292 292 292 292 293 293 294 295 296 295 294 294 294 294 294 294 294 294 293 292 291 291 291 290 290 290 289 288 287 287 286 286 285 284 283 281 280 278 277 276 274 273 272
291 291 292 293 294 295 296 296 296 296 295 295 295 295 295 295 294 293 293 292 291 291 291 290 289 289 289 288 287 286 285 284 284 283 282 281 279 278 277 275 274 272 271
291 291 292 294 295 296 296 297 297 296 295 295 294 294 294 293 293 292 292 292 292 292 291 291 291 290 289 288 287 286 285 284 282 281 280 279 278 276 275 274 272 271 270
292 293 294 295 295 296 296 296 296 295 295 294 294 294 293 293 292 292 293 294 293 293 293 293 292 291 289 288 287 286 285 283 282 280 279 277 276 275 274 273 271 270 268
294 295 295 296 297 297 297 297 297 297 296 295 295 295 294 294 294 294 294 294 294 294 294 294 293 292 290 288 287 285 284 283 282 280 279 277 275 274 272 271 270 269 267
296 297 298 299 300 300 300 300 299 299 299 298 298 297 296 296 296 296 295 295 295 294 294 293 293 291 290 288 287 285 283 282 280 279 278 277 275 273 271 269 268 266 265
298 299 300 301 302 302 302 303 302 302 301 300 299 297 295 294 294 294 294 294 294 293 293 292 292 290 289 288 287 285 284 282 280 278 277 276 274 273 271 269 267 265 263
298 299 300 302 303 303 303 303 303 302 301 300 299 298 297 295 293 293 293 293 293 293 292 292 291 290 289 288 286 285 283 282 280 279 277 275 273 272 270 268 266 263 261
298 300 301 302 303 303 303 302 301 300 299 299 298 298 298 298 297 296 295 295 295 294 294 294 293 292 291 289 287 286 284 282 281 279 277 275 273 271 268 266 264 262 260
299 300 301 302 302 301 301 300 299 299 299 299 299 299 298 298 298 297 297 296 296 296 296 296 295 294 293 291 290 288 287 285 283 281 279 277 274 271 268 265 262 260 258
300 300 300 300 300 300 299 299 299 300 300 300 300 300 300 299 299 298 298 297 297 298 298 298 297 296 295 294 292 291 289 287 285 283 281 278 275 272 269 266 262 259 257
299 300 299 299 299 299 300 300 301 301 301 301 301 301 301 301 301 301 300 300 299 299 299 299 299 298 296 295 294 292 290 289 287 284 282 279 277 274 271 267 264 260 256
299 299 299 299 300 300 301 302 302 303 303 303 303 303 303 303 303 303 303 302 301 300 300 300 299 298 297 296 294 293 291 289 287 285 283 280 277 274 271 268 265 261 257
298 299 299 301 302 303 303 304 304 304 304 305 305 305 305 305 305 305 304 304 303 302 301 300 300 299 298 297 295 294 292 290 288 286 284 281 279 276 273 269 265 261 257
299 300 302 303 304 305 306 306 306 307 307 307 308 307 307 307 307 306 306 305 304 304 303 303 302 301 299 298 296 295 294 292 289 287 285 283 280 278 275 271 266 262 257
301 303 305 306 307 308 308 309 309 309 310 310 309 309 309 308 308 307 307 306 305 305 304 304 303 302 300 298 296 295 293 292 290 288 286 284 282 279 276 272 268 263 258
304 306 308 309 310 310 311 311 311 312 312 311 311 311 310 310 309 308 307 307 306 306 306 306 306 305 303 301 298 295 293 291 290 288 286 285 283 280 278 274 270 265 259
308 310 311 312 312 312 313 313 313 313 313 313 313 312 311 311 310 309 308 307 307 307 307 307 308 307 305 303 299 296 294 293 291 290 288 286 284 282 280 276 272 266 260
311 312 313 313 314 314 314 315 315 315 314 314 314 313 312 311 310 309 309 308 308 308 308 308 309 309 308 305 302 300 298 296 295 292 290 288 287 285 283 279 275 269 262
313 314 314 315 315 316 316 316 316 316 316 315 315 314 313 311 310 310 311 311 311 311 310 310 310 310 309 307 305 304 304 301 299 295 292 292 291 289 287 284 279 273 264
314 315 315 316 316 317 317 317 317 317 317 316 315 314 313 312 311 311 312 312 312 312 311 311 312 312 312 310 310 310 310 309 305 296 295 296 295 294 291 288 283 276 266
315 315 316 317 317 318 318 318 318 318 318 317 316 315 314 313 313 313 312 312 312 312 312 312 313 314 314 313 314 315 315 315 314 306 299 301 299 299 297 294 288 280 268
315 317 317 318 318 319 319 319 319 319 318 317 316 315 315 315 314 314 313 314 315 314 314 314 315 315 316 318 319 321 322 321 319 312 308 310 309 309 307 302 296 285 269
316 317 318 319 319 320 320 320 320 319 318 317 317 317 317 317 316 315 315 316 317 317 317 317 316 317 318 320 322 325 327 329 326 315 311 315 318 319 316 310 305 296 273
317 318 319 320 320 321 321 321 320 319 318 318 318 319 318 317 317 317 317 318 319 321 321 319 317 317 318 320 322 324 328 331 331 320 315 319 322 323 322 318 317 315 288
Height
5801 5800 5799 5797 5796 5794 5793 5791 5789 5786 5784 5781 5779 5777 5774 5772 5770 5768 5766 5763 5761 5759 5756 5754 5751 5750 5748 5746 5744 5742 5740 5738 5737 5736 5734 5733 5732 5731 5731 5730 5729 5729 5729
5796 5795 5793 5791 5790 5788 5786 5784 5781 5779 5776 5773 5771 5768 5766 5763 5761 5759 5756 5754 5752 5750 5747 5744 5741 5738 5736 5734 5732 5730 5727 5725 5723 5722 5720 5719 5718 5717 5716 5715 5715 5715 5715
5790 5788 5787 5785 5783 5780 5778 5776 5773 5770 5768 5765 5763 5760 5757 5755 5752 5749 5747 5744 5742 5739 5736 5734 5731 5727 5724 5721 5718 5716 5714 5711 5709 5707 5705 5703 5702 5701 5700 5700 5700 5700 5700
5784 5782 5780 5778 5775 5773 5770 5767 5765 5762 5759 5757 5754 5751 5749 5746 5743 5739 5736 5733 5730 5727 5724 5721 5718 5715 5711 5707 5704 5701 5698 5696 5693 5691 5688 5687 5685 5684 5683 5683 5683 5683 5683
5777 5775 5773 5770 5767 5765 5762 5759 5756 5753 5750 5748 5745 5743 5740 5736 5733 5729 5726 5722 5718 5714 5711 5707 5703 5700 5696 5692 5688 5684 5680 5677 5674 5672 5670 5668 5666 5665 5664 5664 5664 5665 5666
5771 5768 5765 5762 5759 5756 5753 5750 5747 5743 5740 5737 5735 5732 5729 5726 5721 5718 5714 5710 5706 5701 5696 5692 5687 5683 5678 5674 5669 5665 5661 5656 5653 5650 5648 5647 5646 5645 5644 5644 5644 5645 5646
5763 5761 5758 5754 5751 5747 5744 5741 5737 5734 5729 5726 5723 5721 5718 5714 5709 5705 5700 5696 5691 5686 5680 5675 5669 5664 5658 5653 5648 5643 5639 5635 5632 5628 5625 5623 5622 5621 5621 5622 5622 5623 5624
5756 5753 5749 5746 5742 5738 5734 5730 5727 5723 5719 5714 5710 5707 5705 5704 5698 5693 5687 5681 5675 5670 5664 5657 5651 5645 5638 5632 5626 5620 5614 5610 5607 5604 5601 5598 5596 5595 5595 5596 5597 5598 5600
5748 5745 5741 5737 5733 5729 5724 5720 5716 5711 5707 5702 5696 5690 5685 5682 5681 5679 5672 5665 5658 5652 5645 5638 5631 5624 5617 5610 5603 5596 5590 5584 5580 5577 5574 5572 5569 5567 5566 5566 5567 5568 5570
5740 5736 5733 5728 5724 5719 5715 5710 5705 5700 5695 5690 5684 5676 5668 5661 5655 5653 5651 5644 5637 5630 5623 5615 5608 5599 5591 5583 5576 5569 5563 5557 5552 5547 5543 5540 5537 5535 5534 5533 5534 5535 5537
5732 5728 5724 5719 5715 5710 5705 5700 5694 5688 5681 5675 5668 5661 5654 5646 5636 5629 5626 5621 5614 5606 5598 5590 5582 5572 5563 5554 5545 5538 5531 5524 5518 5513 5508 5504 5501 5499 5497 5497 5498 5500 5502
5723 5719 5715 5710 5705 5700 5694 5688 5682 5675 5668 5660 5651 5643 5635 5627 5618 5609 5603 5598 5591 5584 5574 5564 5554 5543 5532 5521 5511 5502 5494 5487 5481 5475 5469 5465 5461 5459 5457 5457 5459 5462 5465
5714 5710 5705 5700 5694 5689 5682 5675 5668 5660 5652 5644 5635 5626 5616 5606 5596 5585 5576 5570 5566 5560 5551 5540 5526 5513 5499 5486 5475 5464 5455 5448 5441 5435 5430 5425 5421 5418 5417 5417 5419 5422 5427
5704 5700 5694 5689 5682 5676 5669 5661 5653 5644 5635 5626 5617 5607 5597 5587 5575 5564 5552 5541 5534 5532 5526 5516 5500 5484 5468 5452 5439 5427 5419 5411 5404 5398 5392 5388 5384 5382 5381 5382 5383 5386 5391
5694 5689 5683 5676 5669 5662 5654 5646 5637 5628 5618 5608 5598 5588 5578 5567 5555 5542 5528 5513 5499 5491 5493 5487 5471 5456 5438 5421 5406 5393 5385 5378 5371 5365 5359 5355 5352 5350 5349 5350 5351 5353 5357
5684 5677 5670 5663 5655 5647 5638 5629 5620 5610 5600 5590 5579 5568 5557 5544 5532 5518 5503 5488 5469 5452 5447 5450 5438 5425 5410 5394 5379 5364 5354 5347 5341 5336 5330 5325 5322 5320 5320 5320 5321 5323 5326
5672 5665 5657 5649 5640 5631 5622 5613 5603 5593 5582 5571 5559 5547 5534 5520 5507 5491 5476 5460 5443 5423 5408 5410 5406 5395 5382 5369 5358 5343 5330 5321 5316 5310 5304 5300 5296 5294 5292 5292 5293 5294 5297
5659 5651 5642 5633 5624 5615 5606 5596 5586 5575 5563 5551 5538 5524 5510 5495 5480 5463 5447 5432 5416 5400 5382 5373 5374 5366 5356 5343 5332 5322 5311 5301 5293 5288 5282 5277 5273 5269 5267 5266 5266 5267 5269
5645 5636 5627 5618 5608 5599 5589 5579 5568 5556 5543 5529 5515 5500 5484 5467 5452 5436 5421 5406 5391 5378 5363 5349 5343 5337 5329 5319 5307 5300 5292 5283 5275 5267 5262 5257 5253 5248 5245 5242 5241 5241 5243
5631 5622 5612 5602 5592 5582 5571 5561 5550 5537 5523 5508 5491 5474 5458 5441 5425 5410 5396 5383 5369 5356 5343 5330 5320 5313 5305 5296 5286 5279 5274 5268 5260 5251 5245 5240 5235 5230 5226 5222 5220 5219 5219
5617 5607 5597 5587 5576 5565 5554 5542 5530 5517 5501 5485 5469 5451 5434 5418 5402 5387 5373 5360 5347 5333 5321 5310 5301 5293 5286 5277 5269 5262 5256 5253 5247 5237 5231 5227 5220 5216 5211 5206 5202 5200 5199
5603 5593 5583 5573 5561 5548 5536 5522 5508 5494 5478 5461 5445 5429 5413 5398 5384 5371 5357 5343 5328 5313 5301 5291 5284 5276 5269 5262 5255 5248 5242 5238 5236 5230 5219 5217 5209 5204 5198 5193 5188 5185 5183
5590 5580 5569 5558 5545 5531 5516 5501 5486 5471 5454 5437 5420 5406 5393 5380 5365 5352 5340 5328 5315 5301 5287 5277 5270 5263 5256 5250 5244 5239 5233 5227 5223 5217 5210 5208 5202 5194 5188 5182 5177 5173 5171
5576 5566 5554 5541 5528 5512 5496 5480 5464 5448 5432 5416 5401 5387 5374 5362 5347 5332 5320 5310 5300 5289 5278 5268 5260 5253 5246 5240 5234 5229 5224 5220 5216 5208 5201 5197 5194 5187 5181 5174 5169 5165 5163
5562 5551 5538 5524 5510 5494 5476 5458 5441 5426 5412 5399 5386 5371 5356 5342 5329 5314 5302 5294 5286 5278 5269 5261 5253 5245 5239 5233 5226 5221 5217 5212 5209 5203 5196 5190 5187 5182 5176 5170 5165 5161 5159
5548 5535 5522 5506 5491 5475 5456 5437 5419 5405 5393 5383 5371 5357 5341 5326 5312 5300 5290 5282 5275 5268 5262 5256 5249 5242 5235 5229 5223 5216 5211 5207 5203 5199 5192 5187 5182 5177 5173 5168 5164 5160 5158